DW8228 Weather Reports


time (UTC)temp
F
wind
direction
speed
knots
gust
knots
rain 1hr
in
rain 24hr
in
rain mn
in
humidity
%
barometer
mb
20260508074556 51 21 2.6 4.3 0.00 0.00 0.00 35 1025.8
20260508073100 49 281 0.0 2.6 0.00 0.00 0.00 42 1025.7
20260508071559 49 360 0.0 7.0 0.00 0.00 0.00 46 1025.5
20260508070057 49 19 1.7 5.2 0.00 0.00 0.00 40 1025.4
20260508064544 47 37 2.6 4.3 0.00 0.00 0.00 41 1025.3
20260508063038 46 319 1.7 2.6 0.00 0.00 0.00 47 1025.2
20260508061535 44 319 1.7 2.6 0.00 0.00 0.00 48 1025.0
20260508060036 43 320 1.7 2.6 0.00 0.00 0.00 53 1024.8
20260508054532 43 320 1.7 3.5 0.00 0.00 0.00 54 1024.6
20260508053028 42 320 1.7 3.5 0.00 0.00 0.00 58 1024.4
20260508051522 41 13 2.6 5.2 0.00 0.00 0.00 59 1024.1
20260508050021 40 315 2.6 5.2 0.00 0.00 0.00 60 1023.9
20260508044519 40 17 3.5 7.8 0.00 0.00 0.00 62 1023.8
20260508043018 39 19 3.5 7.8 0.00 0.00 0.00 63 1023.7
20260508041516 38 22 6.1 8.7 0.00 0.00 0.00 64 1023.6
20260508040027 37 360 3.5 7.0 0.00 0.00 0.00 64 1023.5
20260508034518 37 360 5.2 7.8 0.00 0.00 0.00 65 1023.4
20260508033013 36 319 4.3 7.0 0.00 0.00 0.00 67 1023.4
20260508031511 35 311 4.3 7.8 0.00 0.00 0.00 67 1023.2
20260508030013 35 18 3.5 7.0 0.00 0.00 0.00 66 1023.2
20260508024512 35 5 2.6 5.2 0.00 0.00 0.00 66 1023.1
20260508023007 35 306 4.3 7.8 0.00 0.00 0.00 66 1022.9
20260508021504 35 321 5.2 7.8 0.00 0.00 0.00 66 1022.7
20260508020112 36 289 4.3 8.7 0.00 0.00 0.00 66 1022.5
20260508014620 36 306 4.3 7.8 0.00 0.00 0.00 66 1022.2
20260508013107 36 311 3.5 8.7 0.00 0.00 0.00 66 1021.9
20260508011558 36 360 4.3 8.7 0.00 0.00 0.00 65 1021.8
20260508010054 37 360 3.5 7.8 0.00 0.00 0.00 63 1021.7
20260508004546 38 290 4.3 9.6 0.00 0.00 0.00 63 1021.5
20260508003044 38 309 5.2 10.4 0.00 0.00 0.00 63 1021.3
20260508001549 38 321 7.0 10.4 0.00 0.00 0.00 62 1021.2
20260508000038 39 301 6.1 10.4 0.00 0.00 0.00 62 1020.9
20260507234535 38 306 7.8 13.0 0.00 0.00 0.00 61 1020.7
20260507233034 38 304 7.0 12.2 0.00 0.00 0.00 61 1020.6
20260507231529 38 304 7.8 12.2 0.00 0.00 0.00 60 1020.4
20260507230031 39 316 3.5 7.0 0.00 0.00 0.00 59 1020.3
20260507224530 39 304 2.6 7.0 0.00 0.00 0.00 58 1020.0
20260507223023 39 285 2.6 7.0 0.00 0.00 0.00 57 1020.0
20260507221525 39 295 4.3 8.7 0.00 0.00 0.00 57 1019.8
20260507220019 40 305 5.2 9.6 0.00 0.00 0.00 55 1019.7
20260507214517 40 301 7.0 10.4 0.00 0.00 0.00 55 1019.6
20260507213015 40 303 5.2 8.7 0.00 0.00 0.00 54 1019.4
20260507211527 41 296 5.2 7.8 0.00 0.00 0.00 52 1019.3
20260507210007 42 290 5.2 10.4 0.00 0.00 0.00 51 1019.1
20260507204505 42 302 7.0 12.2 0.00 0.00 0.00 48 1018.9
20260507203002 42 309 7.0 11.3 0.00 0.00 0.00 47 1018.6
20260507201502 43 298 6.1 10.4 0.00 0.00 0.00 45 1018.5
20260507200059 43 291 6.1 10.4 0.00 0.00 0.00 45 1018.3
20260507194607 43 286 5.2 8.7 0.00 0.00 0.00 44 1018.1
20260507193056 44 284 7.0 13.0 0.00 0.00 0.00 43 1017.9
20260507191601 44 293 7.8 12.2 0.00 0.00 0.00 41 1017.7
20260507190052 45 304 6.1 11.3 0.00 0.00 0.00 39 1017.4
20260507184549 46 264 8.7 14.8 0.00 0.00 0.00 34 1017.2
20260507183054 47 301 8.7 15.6 0.00 0.00 0.00 33 1017.1
20260507181547 47 282 10.4 14.8 0.00 0.00 0.00 30 1017.0
20260507180051 48 263 7.8 15.6 0.00 0.00 0.00 29 1016.7
20260507174543 49 284 9.6 17.4 0.00 0.00 0.00 27 1016.7
20260507173055 49 271 8.7 17.4 0.00 0.00 0.00 26 1016.5
20260507171539 50 273 8.7 14.8 0.00 0.00 0.00 26 1016.3
20260507170048 51 267 6.1 14.8 0.00 0.00 0.00 25 1016.3
20260507164535 51 271 9.6 16.5 0.00 0.00 0.00 22 1016.3
20260507163032 51 286 8.7 15.6 0.00 0.00 0.00 23 1016.2
20260507161530 51 248 7.8 15.6 0.00 0.00 0.00 23 1016.3
20260507160029 52 290 8.7 14.8 0.00 0.00 0.00 29 1016.2
20260507154522 52 271 10.4 17.4 0.00 0.00 0.00 27 1016.1
20260507153019 52 272 8.7 18.2 0.00 0.00 0.00 29 1016.0
20260507151520 54 258 8.7 16.5 0.00 0.00 0.00 28 1015.9
20260507150018 54 271 7.0 13.9 0.00 0.00 0.00 28 1015.8
20260507144514 55 313 7.8 11.3 0.00 0.00 0.00 23 1015.7
20260507143012 55 254 4.3 7.8 0.00 0.00 0.00 26 1015.6
20260507141511 54 227 5.2 11.3 0.00 0.00 0.00 28 1015.6
20260507140010 54 220 7.0 13.0 0.00 0.00 0.00 33 1015.5
20260507134509 53 221 9.6 13.9 0.00 0.00 0.00 35 1015.5
20260507133007 52 241 9.6 13.9 0.00 0.00 0.00 34 1015.5
20260507131507 51 217 9.6 13.9 0.00 0.00 0.00 35 1015.5
20260507130005 51 215 12.2 15.6 0.00 0.00 0.00 35 1015.5
20260507124504 51 198 8.7 11.3 0.00 0.00 0.00 43 1015.5
20260507123001 50 216 10.4 13.9 0.00 0.00 0.00 43 1015.5
20260507121501 51 207 8.7 10.4 0.00 0.00 0.00 43 1015.5
20260507120059 54 213 7.8 8.7 0.00 0.00 0.00 30 1015.4
20260507114600 52 196 5.2 7.8 0.00 0.00 0.00 32 1015.5
20260507113056 52 208 6.1 8.7 0.00 0.00 0.00 34 1015.5
20260507111556 53 203 5.2 8.7 0.00 0.00 0.00 35 1015.5
20260507104601 51 209 3.5 7.0 0.00 0.00 0.00 29 1015.4
20260507103125 51 207 4.3 7.0 0.00 0.00 0.00 34 1015.4
20260507101552 52 211 4.3 7.0 0.00 0.00 0.00 30 1015.2
20260507100103 52 206 2.6 4.3 0.00 0.00 0.00 27 1015.2
20260507094550 52 206 2.6 4.3 0.00 0.00 0.00 35 1015.1
20260507093048 55 303 0.0 2.6 0.00 0.00 0.00 24 1015.1
20260507091548 53 269 1.7 5.2 0.00 0.00 0.00 25 1015.0
20260507090054 53 229 1.7 3.5 0.00 0.00 0.00 25 1015.0
20260507084548 52 261 0.0 3.5 0.00 0.00 0.00 27 1015.0
20260507083045 52 41 1.7 2.6 0.00 0.00 0.00 29 1015.1
20260507081542 54 41 0.9 1.7 0.00 0.00 0.00 28 1015.0
20260507080046 53 41 0.9 4.3 0.00 0.00 0.00 27 1015.1